User: anonymous   Login
Location: Caltech
(34.1382°N, 118.1253°W)
Time: 06:26:38
(UTC-07:00)
Language:

Cosmos 1125 Rocket - Orbit

View from above orbital plane
View from above orbital plane
View from above satellite
View from above satellite

Ground track
Ground track

The orbit data is extracted from the following two-line orbital elements,

1 11511U 79078B   15208.35184461  .00000015  00000-0  14143-4 0  9991
2 11511 074.0372 144.9390 0016162 201.5123 158.5353 14.36640666879404
Epoch (UTC): 27 July 2015 08:26:39
Eccentricity: 0.0016162
inclination: 74.0372°
perigee height: 758 km
apogee height: 781 km
right ascension of ascending node: 144.9390°
argument of perigee: 201.5123°
revolutions per day: 14.36640666
mean anomaly at epoch: 158.5353°
orbit number at epoch: 87940

The dashed part of the orbit path shows where the satellite is in the earth's shadow,  

DLR